Location: Home
(42.5358°N, 72.7383°W)
Time: 20:55:53
(UTC-05:00)

Altair - Pass Details

Date: 09 December 2021
Orbit: 1501 x 1683 km, 47.2° (Epoch: 26 January)

Event Time Altitude Azimuth Distance (km) Brightness Sun altitude
Rises 18:17:56 0° 289° (WNW) 4,727 11.0 -21.4°
Reaches altitude 10° 18:21:03 10° 291° (WNW) 3,721 10.3 -21.9°
Maximum altitude 18:30:26 80° 19° (NNE) 1,533 7.3 -23.6°
Enters shadow 18:34:38 38° 101° (ESE) 2,155 7.8 -24.4°
